Wind_Speed
18 18 16 16 18 22 10 3 2 2 7 2 1 2 3 3 3 2 2 1 5 4 3 5 3 4 4 1 1 2 2 1 3 9 3 4 6 7 5 3 2 2 2 5
18 17 15 14 13 15 10 1 1 2 2 1 2 3 3 3 4 3 3 2 3 4 4 2 3 4 1 2 1 2 2 3 3 6 5 2 3 6 6 4 3 4 3 4
19 17 15 11 12 12 10 1 2 3 2 0 2 1 3 3 2 3 3 3 1 3 4 4 4 3 2 0 1 2 0 2 5 5 3 1 3 4 5 6 4 5 6 4
20 18 17 11 10 10 6 2 4 3 3 3 2 2 2 2 4 3 4 2 7 6 4 3 6 5 4 1 4 2 1 4 2 6 8 4 4 5 7 11 9 9 6 13
22 20 18 14 9 8 3 2 2 2 1 1 2 3 6 8 3 7 5 5 7 4 6 8 6 3 2 1 3 1 3 4 2 4 8 9 9 8 8 12 7 14 5 11
20 23 22 18 14 10 5 3 2 2 2 1 2 5 7 6 4 4 2 6 4 7 12 6 3 2 2 3 1 1 1 2 1 5 2 3 6 11 16 7 6 8 11 15
17 18 21 23 19 20 13 7 4 2 4 4 5 4 5 5 6 3 2 4 3 2 4 5 3 2 6 6 8 5 2 1 2 3 2 4 2 2 2 14 14 10 7 2
13 16 19 21 21 25 26 16 7 4 4 5 4 6 7 3 3 5 6 6 3 5 4 2 5 2 2 5 7 9 7 1 3 3 3 8 9 3 2 5 5 1 4 2
16 14 13 11 15 23 30 23 23 4 2 8 9 4 5 5 3 2 1 2 1 1 2 2 4 4 3 2 2 4 6 4 3 1 4 7 4 1 1 2 4 3 2 3
15 15 16 17 17 16 16 12 28 6 3 4 7 5 5 5 2 2 1 4 2 1 2 2 4 4 1 4 5 4 4 3 11 9 6 7 7 3 2 3 2 3 2 2
15 15 15 15 15 15 17 11 14 17 3 4 7 8 8 2 3 5 3 3 2 2 3 3 4 3 4 1 2 6 7 7 4 4 4 9 5 2 7 3 0 1 1 2
16 16 15 14 15 15 14 8 9 17 2 3 6 15 17 19 19 7 5 1 3 5 3 2 2 2 0 3 3 1 3 6 5 8 6 3 3 3 1 3 2 3 2 1
16 15 16 15 15 13 10 8 8 4 2 4 5 8 12 21 9 12 6 3 4 2 1 3 1 4 3 3 5 2 4 4 2 2 6 10 10 3 4 6 6 3 3 4
17 16 15 15 16 14 12 11 9 5 2 3 4 0 2 5 9 9 9 7 4 4 2 2 2 3 2 3 2 4 3 7 6 5 9 7 8 7 7 6 4 3 3 3
22 21 20 17 16 15 13 15 18 20 6 3 3 1 2 5 5 13 9 7 5 2 3 3 3 1 2 1 1 5 5 7 5 9 7 5 6 1 2 5 5 3 3 4
22 22 20 17 14 11 7 3 4 2 11 3 3 2 5 7 3 6 4 5 2 2 3 2 2 2 2 3 3 5 5 2 3 10 2 3 2 1 2 4 3 1 2 4
23 19 17 14 11 8 3 3 2 2 3 2 3 2 3 4 2 2 2 2 1 2 2 2 2 2 2 2 4 1 5 5 5 4 3 3 1 3 3 2 1 2 3 4
22 18 14 12 13 11 6 9 7 10 3 1 3 3 3 4 2 1 1 2 1 1 2 2 2 1 0 4 2 6 7 12 3 9 5 2 3 3 3 2 3 4 3 2
20 12 9 5 1 1 2 8 7 11 3 2 1 2 3 3 2 1 1 1 2 1 2 2 4 2 4 3 6 6 5 4 10 13 4 5 2 4 5 4 4 3 5 3
13 8 2 2 2 4 6 2 1 2 0 2 1 1 1 2 0 1 1 2 1 2 2 3 2 2 4 2 3 5 7 7 7 5 6 6 4 5 5 4 3 3 4 5
5 2 2 3 1 1 3 2 2 2 2 1 1 1 2 2 2 2 2 1 1 2 1 2 2 2 3 7 7 3 4 6 6 4 4 5 4 5 4 4 5 5 5 3
6 8 6 4 3 3 4 2 3 1 2 0 2 1 0 1 1 1 1 1 1 2 1 2 2 2 3 6 5 6 6 7 6 4 4 5 5 6 4 4 5 8 8 8
7 3 3 3 3 4 4 3 4 1 2 3 1 1 1 0 1 1 1 2 1 2 1 2 2 3 4 5 5 5 8 9 6 7 8 9 10 13 11 6 11 10 14 14
2 4 2 3 2 4 4 4 3 3 3 2 1 0 2 1 1 0 2 1 1 1 1 2 2 3 5 4 3 4 6 6 5 6 8 9 10 10 15 16 13 14 14 15
1 2 3 5 3 1 0 2 2 1 2 2 2 2 1 1 2 1 3 1 2 3 1 1 2 3 4 5 5 5 5 4 5 6 6 8 10 10 12 17 17 17 18 19
2 2 1 1 0 1 1 1 2 2 2 2 2 2 3 2 2 2 3 3 3 1 2 3 3 4 4 4 4 4 6 6 7 9 9 10 11 10 10 15 19 19 19 19
2 2 2 1 1 0 1 2 3 2 3 2 3 3 6 0 3 2 3 2 2 3 3 3 5 4 4 4 4 6 7 8 9 10 12 12 12 13 14 12 17 17 17 18
Wind_Direction
306 316 323 331 336 340 349 8 360 119 148 47 294 218 204 171 195 133 273 281 139 164 305 286 265 241 231 259 152 255 320 289 221 220 249 195 175 188 161 115 227 19 11 293
303 311 317 326 334 344 335 335 234 124 98 191 277 279 272 233 180 197 180 252 255 171 170 272 238 291 152 175 329 188 25 263 322 342 357 360 209 192 155 104 84 196 149 256
297 300 306 318 319 330 339 43 354 332 43 358 195 292 258 255 230 233 177 229 221 167 154 196 289 301 326 240 243 248 353 258 221 203 199 96 204 201 178 157 175 166 206 263
293 292 295 297 303 314 328 48 252 184 267 290 180 120 196 223 240 226 193 243 233 184 153 180 231 227 284 191 348 360 277 251 267 267 262 271 243 237 194 205 211 206 165 208
284 285 286 280 274 287 246 173 134 6 243 20 107 229 236 204 243 154 236 209 203 194 174 191 205 199 192 189 326 359 336 283 316 265 248 239 250 223 223 235 222 240 208 251
295 291 284 277 255 231 214 206 180 130 180 79 74 226 224 228 151 243 230 190 144 213 237 204 160 234 193 176 139 263 229 277 228 259 4 325 278 217 220 221 197 209 221 248
289 287 291 284 269 234 217 190 132 124 240 180 199 226 200 233 221 221 180 148 159 222 78 81 71 234 223 228 225 191 259 234 267 275 355 241 243 298 272 228 238 209 255 133
318 290 285 292 284 259 228 209 169 174 245 204 241 223 228 263 251 218 188 197 197 163 106 21 347 298 277 227 227 205 200 181 287 255 247 318 313 13 180 173 273 152 236 52
317 328 344 328 313 278 228 225 204 170 180 214 213 169 187 206 209 322 202 37 121 86 145 140 202 232 232 257 141 194 180 237 220 308 240 222 256 329 311 272 296 35 28 8
337 330 320 312 318 309 325 247 223 151 209 224 154 200 187 161 115 151 228 167 174 25 138 164 183 240 180 219 184 172 158 197 223 225 252 284 251 256 296 109 208 14 360 355
328 330 329 334 325 328 348 308 278 217 217 246 201 186 200 174 185 173 141 96 285 108 180 180 219 191 222 152 190 176 177 172 194 180 222 264 171 107 182 202 358 317 10 6
318 319 318 321 318 330 328 295 329 237 266 271 252 250 261 216 202 168 176 234 177 174 140 208 138 237 107 187 240 292 219 199 188 194 210 263 240 206 228 159 169 286 281 263
318 313 312 310 310 307 314 304 325 230 250 263 222 229 240 246 243 225 155 211 180 216 220 147 156 219 134 184 236 166 239 161 216 56 257 236 241 243 224 208 226 251 260 296
305 304 307 307 305 307 298 281 269 222 285 257 261 323 214 271 248 227 255 170 102 95 88 180 175 194 151 241 240 200 197 152 188 264 278 283 256 227 218 202 224 239 264 237
303 300 298 302 302 307 302 289 275 243 210 279 282 105 350 327 252 183 161 128 129 153 157 180 206 164 149 105 20 242 190 207 214 245 245 202 252 259 149 142 188 187 260 283
300 298 300 293 300 310 314 344 69 88 220 268 276 19 358 355 114 130 125 163 147 153 151 186 222 285 151 208 238 267 258 292 217 265 15 223 227 289 180 183 206 181 293 293
299 297 295 286 285 266 172 220 320 339 206 267 289 317 337 325 360 38 75 78 141 129 145 198 175 222 199 217 237 181 333 310 320 331 336 304 283 285 20 353 8 302 263 274
295 293 291 270 280 279 261 250 303 220 185 274 272 289 339 3 346 74 349 124 133 168 141 120 180 139 55 254 272 352 351 332 17 359 337 252 265 304 356 334 340 328 318 316
298 268 267 277 204 65 294 311 317 204 201 217 119 155 285 344 360 8 30 336 128 86 201 191 153 153 220 352 324 337 345 316 300 313 310 339 35 320 337 354 345 310 306 316
278 185 137 330 166 325 321 273 12 237 353 211 197 123 261 94 358 360 49 338 232 173 227 126 208 250 110 25 322 268 311 307 313 328 340 350 357 2 340 330 294 275 295 300
191 150 167 96 71 8 31 328 83 312 329 12 83 152 161 208 143 192 215 189 196 222 239 175 233 266 331 347 336 319 333 317 299 244 274 283 268 297 320 347 353 347 314 298
178 137 113 111 49 36 73 272 321 112 247 353 161 205 240 180 248 218 191 204 118 260 96 75 278 272 290 335 329 329 352 346 343 352 6 11 14 352 334 334 353 4 360 357
119 67 59 70 326 25 134 252 293 292 203 194 180 218 181 107 228 83 181 180 197 108 59 243 227 319 335 336 335 353 6 7 8 17 31 37 30 42 39 15 26 38 38 28
134 143 124 142 255 241 196 190 194 238 106 130 126 79 173 220 118 123 114 41 132 102 318 247 304 322 338 355 6 22 358 358 6 23 30 34 31 21 38 43 42 55 49 52
164 117 200 212 226 86 281 187 88 295 134 98 52 25 96 335 93 34 93 64 245 202 234 42 12 360 357 10 14 16 11 5 12 21 36 40 36 30 30 40 47 55 58 58
137 108 71 234 107 218 147 172 199 211 115 67 57 94 53 293 125 82 221 140 229 86 39 18 27 33 14 5 11 11 16 21 27 30 33 39 39 29 25 34 36 41 50 51
201 234 202 147 87 290 160 148 220 188 97 180 110 97 220 55 41 13 17 43 23 4 35 32 20 19 3 3 19 27 36 37 35 38 35 32 39 46 43 34 21 35 47 56
Height
800 799 796 794 791 787 782 781 787 783 784 796 800 795 774 773 776 776 777 776 775 784 783 780 777 770 764 756 756 753 749 749 740 729 718 720 726 729 731 741 735 746 743 719
797 796 794 793 791 788 786 788 785 784 783 800 803 781 776 775 776 775 777 774 774 773 778 778 770 759 755 756 759 760 755 749 751 738 727 719 720 725 726 734 737 740 745 726
793 792 791 790 790 789 786 787 794 789 787 789 785 776 773 772 775 774 773 774 773 773 777 782 774 763 755 756 757 752 754 752 743 732 720 719 721 718 720 721 737 739 734 718
788 788 787 787 787 787 787 790 791 792 796 792 796 786 792 782 778 776 775 776 775 770 772 773 773 764 761 756 757 758 759 750 740 735 732 729 722 718 721 719 714 716 716 719
782 782 782 782 783 784 785 790 792 796 800 801 795 791 792 780 776 776 780 780 770 775 772 758 767 768 764 764 765 763 768 755 746 738 724 725 721 719 720 715 713 704 712 705
776 776 776 777 776 778 778 779 779 781 782 800 797 787 773 772 770 767 762 767 772 773 764 761 763 766 768 769 770 768 769 757 751 747 729 728 725 712 704 703 704 698 706 682
771 770 770 771 771 770 772 772 777 780 772 779 785 775 769 763 762 766 763 765 769 766 765 768 772 773 771 771 768 768 765 758 750 742 734 726 690 696 695 692 684 698 693 692
767 766 766 765 764 764 762 763 767 773 767 764 766 771 763 759 758 760 756 762 763 765 765 776 781 772 764 762 765 766 766 762 754 739 732 719 692 694 697 696 692 699 700 704
767 765 763 761 759 756 754 756 756 767 762 757 749 757 764 766 773 770 762 765 765 765 764 774 780 761 748 759 761 763 765 765 759 757 736 743 706 702 706 701 701 706 706 708
765 763 761 759 757 755 753 751 754 751 758 749 749 751 750 753 761 760 771 767 768 767 777 778 783 764 758 750 755 761 761 762 755 749 737 737 715 704 704 703 707 707 708 710
762 760 758 757 755 754 751 749 749 749 745 738 737 736 744 747 747 747 762 765 773 771 770 766 764 764 758 762 756 751 750 755 756 750 744 736 710 710 705 710 709 710 709 710
760 758 756 755 753 752 749 748 747 747 747 736 734 730 728 725 727 738 755 751 755 746 755 758 752 757 778 760 750 759 748 735 741 733 722 709 709 712 714 714 711 707 708 707
756 754 752 751 749 748 748 745 745 745 743 731 729 723 722 723 725 725 735 744 740 743 741 745 750 751 752 756 755 743 738 743 742 733 710 710 708 711 711 711 711 708 708 708
752 750 748 747 745 744 743 741 741 742 741 736 720 717 718 718 718 722 724 726 734 736 739 740 742 742 740 752 742 743 727 730 724 732 716 710 707 708 705 706 707 707 708 708
747 746 744 742 741 740 738 736 733 732 736 724 722 719 719 719 718 716 719 724 730 735 739 738 739 741 740 755 760 735 730 719 713 699 693 700 699 704 706 706 707 707 708 707
742 741 739 737 737 736 735 734 730 727 731 725 716 725 722 719 717 717 718 721 725 726 730 734 735 739 732 735 751 721 717 710 708 700 710 706 708 708 708 709 710 710 711 710
737 735 733 733 733 733 733 734 729 728 729 727 718 723 725 723 722 722 722 723 725 725 728 731 733 737 732 736 739 720 723 724 719 718 714 708 710 706 710 710 710 710 711 710
730 729 728 727 728 727 725 726 726 725 726 725 718 728 730 727 727 723 723 724 725 725 725 732 734 736 736 736 729 730 733 724 722 722 723 718 717 715 714 713 712 710 710 710
725 723 723 724 724 724 725 725 724 723 725 723 727 739 735 731 731 728 727 725 725 726 723 726 729 732 730 739 744 745 747 748 738 729 726 723 719 720 717 716 715 715 711 711
720 720 721 727 724 724 725 724 725 720 718 719 725 732 733 733 733 731 730 730 724 726 726 727 728 733 749 752 750 753 749 746 744 734 722 723 723 723 722 720 719 717 715 713
717 718 723 723 724 725 729 737 735 732 726 722 728 729 729 731 729 728 727 726 725 724 729 730 735 737 748 751 748 748 745 744 742 739 736 734 733 730 726 720 717 716 715 714
712 716 720 722 728 737 742 751 736 732 727 727 728 729 726 727 727 724 727 725 727 722 735 741 745 750 753 753 750 747 743 743 741 738 734 732 731 728 725 722 719 717 716 714
713 717 724 726 741 745 746 745 744 736 725 729 731 729 728 728 727 726 726 725 725 732 736 733 750 752 753 753 751 747 744 744 743 740 737 735 733 729 726 724 722 719 717 716
712 721 721 726 740 735 731 728 729 725 726 728 729 732 731 730 725 726 726 733 733 735 751 746 755 755 754 752 751 749 749 749 747 743 740 739 737 735 732 729 726 723 720 719
713 712 717 730 717 720 725 729 727 726 724 728 732 733 731 732 733 735 735 736 733 742 740 746 753 755 754 753 752 752 751 750 749 746 743 742 740 739 738 735 732 729 726 723
711 715 720 716 713 713 723 724 724 724 726 729 733 745 742 736 733 736 733 733 737 741 750 757 756 759 759 758 756 755 754 753 751 749 748 746 744 744 743 741 738 735 732 730
708 707 708 710 710 710 721 725 725 723 726 736 749 740 740 742 752 745 749 749 757 762 762 764 765 764 763 761 759 758 757 756 754 753 752 751 749 748 745 744 744 742 740 738